COSMOS 2251 DEB, 35661

Orbit data source: Space-Track

COSMOS 2251 DEB, 35661 is space debris in LEO originally from a launch on Wed, 16 Jun 1993 UTC launched from the Plesetsk Missile And Space Complex (PKMTR). The debris from Iridium 33, an American commercial communications satellite, has been tracked extensively since its accidental collision with the defunct Russian satellite Cosmos 2251 in 2009. This event, occurring at high speed in low Earth orbit (LEO), generated thousands of pieces of space debris, significantly increasing the risk of further collisions. The Iridium 33 debris cloud has impacted space traffic management and orbital debris mitigation strategies, making it a subject of ongoing study in space situational awareness.

Loading next visibility...
Identifier
35661, 1993-036APC
Orbit
LEO
Country
Flag of CISCIS
Related business
Manufacturer
Unknown
Mission
Spacecraft
Bus & Motor
Unknown
Mass
Unknown
Launch date (UTC)
1993-06-16 (33 years ago)
Launch vehicle
Unknown
Launch site
Plesetsk Missile And Space Complex (PKMTR)
Object type
Payload
Rocket body
Debris
Shape & HBR
Unknown shape, 0.1 m
Radar Cross Section
Small (<0.1 m²)

Expand to show TLE details & history
Last TLE update: 17 hours ago

TLE from 17 hours ago
0 COSMOS 2251 DEB
1 35661U 93036APC 26034.55686783  .00010625  00000-0  10993-2 0  9993
2 35661  74.0152 334.3802 0085297  63.8219 297.1701 14.87457405886537
Epoch: 2026-02-03T13:21Z
TLE epoch observation values (Epoch: 2026-02-03T13:21:53.380Z)
Latitude
-0.00002°
Longitude
0.17168°
Altitude
581.753 km
Speed
7.584 km/s
True Right ascension
22h 17m 31s
True Declination
0° 00' 00"
Sunlit
Object was in daylight at epoch
Visualization orbit readout
Latitude
Unknown
Longitude
Unknown
Altitude
Unknown
Speed
Unknown
Apparent Right ascension
Unknown
Apparent Declination
Unknown
Sunlit
N/A
Visualization observer readout
Local Sidereal Time
07:54:00
Azimuth
Unknown
Elevation
Unknown
Doppler factor
Unknown
Orbital elements
Apogee altitude
663.003 km
Perigee altitude
543.901 km
Semi-major axis
6,981.589 km
Eccentricity
0.00853
Inclination
74.0152°
RAAN
334.3802°
Arg. of periapsis
63.8219°
True anomaly
296.2963°
Mean anomaly
297.1701°
Eccentric anomaly
296.73362°
Mean motion
3.72059 °/min
Orbital period
96.76 mins
BSTAR
0.0010993
Loading maneuver chart data...
Computing Atmospheric mass density...
Loading historical data...
Loading historical data...
Loading historical data...
Loading historical data...
Loading historical data...
Loading historical data...
Loading historical data...

Documentation

Showing up to 5 results
|